Location: ???????
(55.7027°N, 37.3832°E)
Time: 08:27:28
(UTC+00:00)

SeaSat 1 - Pass Details

Date: 14 April 2026
Orbit: 736 x 740 km, 108.0° (Epoch: 9 May)

Event Time Altitude Azimuth Distance (km) Brightness Sun altitude
Exits shadow 21:22:38 16° 259° (WSW) 1,863 4.4 -24.6°
Drops below altitude 10° 21:25:33 10° 295° (WNW) 2,258 5.2 -24.6°
Sets 21:28:43 0° 317° (NW) 3,187 6.4 -24.6°
